Tracking 18945 objects as of 21-Jan-2018
HD Live streaming from Space Station
objects crossing your sky now

GLOBALSTAR M050

Track GLOBALSTAR M050 now!
10-day predictions
GLOBALSTAR M050 is classified as:


NORAD ID: 25908
Int'l Code: 1999-049B
Perigee: 1,647.7 km
Apogee: 1,662.5 km
Inclination: 52.0 °
Period: 119.3 minutes
Semi major axis: 8026 km
RCS: 2.2706 m2 (large)
Launch date: September 22, 1999
Source: Globalstar (GLOB)
Launch site: TYURATAM MISSILE AND SPACE COMPLEX (TTMTR)
aabbcc
Your satellite tracking list
Your tracking list is empty




NASA's NSSDC Master Catalog

Two Line Element Set (TLE):
1 25908U 99049B   18020.42240187 -.00000156 +00000-0 -76285-3 0  9999
2 25908 052.0011 340.6889 0009229 040.9003 105.7959 12.07376594821473
Source of the keplerian elements: AFSPC